RH
3 3 2 3 2 2 3 2 3 3 3 3 3 3 3 3 3 3 3 3 3 3 3 3 3 3 3 3 3 3 3 3 3 3 3 3 3 3 3 3 3 3 3 3 3 4 4 4 5 5 6 6 6 7 7 7 7 6 6 7 7 8 9 9 10 12 14 15 17 18 17 17 18 17 17 18 20 20 20 21 23 23 22 21 22
3 3 3 3 2 2 2 2 2 2 2 3 3 3 3 3 3 3 3 3 3 3 3 3 3 3 3 3 3 3 3 3 3 3 3 3 3 3 3 3 3 3 3 3 3 3 3 3 4 4 5 5 6 6 6 7 7 6 6 6 6 7 7 8 8 10 12 13 15 16 17 17 17 18 18 18 18 19 20 22 23 25 25 23 22
3 3 3 3 3 3 3 2 2 2 2 2 2 2 2 3 3 3 3 3 3 3 3 3 3 3 3 3 3 3 3 3 3 3 3 3 3 3 3 3 3 3 3 3 3 3 3 3 3 3 4 4 5 5 6 6 7 6 7 6 6 7 6 7 7 8 10 11 13 14 15 16 16 16 18 19 19 18 19 20 22 24 26 26 25
3 3 3 3 3 3 3 3 3 3 2 2 2 2 2 2 2 2 2 3 3 3 3 3 3 3 4 4 3 3 3 3 3 3 3 3 3 3 3 4 4 3 3 3 3 3 3 3 3 3 3 3 4 4 4 5 5 6 6 6 6 7 7 7 7 7 8 10 11 12 14 15 15 15 16 17 19 20 19 19 20 22 24 26 26
4 4 3 3 3 3 3 3 3 3 3 3 2 2 2 2 2 2 2 2 2 3 3 3 3 3 3 4 3 4 3 3 3 3 3 3 3 4 4 4 4 4 4 3 3 3 3 3 3 3 3 3 3 3 3 4 4 4 5 5 6 6 6 6 6 6 7 8 10 11 12 13 14 14 14 14 17 19 20 21 20 20 22 24 26
4 4 4 4 3 3 3 3 3 3 3 3 3 3 2 2 2 2 2 2 2 2 2 2 2 3 3 3 3 3 3 3 3 3 3 3 3 4 4 4 4 4 4 4 3 3 3 3 3 3 3 3 3 3 3 3 3 3 4 4 4 5 5 5 6 6 6 7 8 10 11 12 13 13 13 13 14 15 18 21 22 22 21 22 24
4 4 4 4 4 4 3 3 3 3 3 3 3 3 3 3 3 2 2 2 2 2 2 2 2 2 2 2 3 3 3 3 3 3 4 4 4 4 4 4 4 3 3 3 3 3 3 3 3 3 3 3 3 3 3 3 2 3 3 3 3 4 4 4 5 5 5 5 7 8 10 11 12 13 13 13 13 13 14 17 20 23 23 22 23
4 4 4 4 4 4 4 4 3 3 3 3 3 3 3 3 3 3 3 3 3 2 2 2 2 2 2 2 2 2 2 3 3 3 3 4 4 4 4 4 4 4 4 3 3 4 3 4 4 3 3 3 3 3 3 3 3 2 2 3 3 3 3 3 4 4 4 5 5 6 8 10 11 12 13 12 12 13 13 14 16 20 23 25 25
4 4 4 4 4 4 4 4 3 3 3 3 3 3 3 3 3 3 3 2 3 3 3 3 3 3 3 2 2 2 2 2 2 3 3 3 3 3 3 4 4 4 4 4 4 4 4 4 4 4 4 4 4 4 3 3 3 3 3 3 3 3 3 3 3 3 3 4 4 5 6 7 9 11 12 13 13 13 13 14 14 16 19 23 26
4 4 4 4 4 4 4 3 3 4 3 3 3 3 3 3 3 3 3 3 3 3 3 3 3 3 3 3 3 3 3 3 3 3 3 3 3 3 3 3 3 3 3 4 4 4 4 4 4 4 4 4 4 4 4 4 4 3 4 3 3 3 3 3 3 3 3 3 3 4 5 6 7 8 10 12 14 15 15 15 15 15 15 17 22
4 4 4 4 4 3 4 3 3 3 3 3 3 3 3 3 3 3 3 3 3 3 3 3 3 3 4 4 4 4 4 3 3 3 3 3 3 3 3 3 3 3 3 3 3 3 3 3 4 4 4 4 4 4 4 4 4 4 4 4 4 4 3 3 3 3 3 3 3 3 4 4 5 7 8 10 12 14 15 15 15 15 15 15 17
4 4 4 4 4 4 4 3 4 3 3 3 3 3 3 3 3 3 3 3 3 3 3 3 3 3 3 4 4 4 4 4 3 3 3 3 3 3 4 4 3 3 3 3 3 3 3 3 3 3 3 3 3 3 4 4 4 4 4 4 4 4 4 4 4 3 3 3 3 3 3 3 4 5 6 8 9 11 13 15 15 15 16 16 16
4 4 4 4 4 4 4 4 4 3 3 3 3 3 3 3 3 3 3 3 3 3 3 3 3 3 3 4 4 4 4 4 4 4 3 3 4 4 4 4 4 3 3 3 3 3 3 3 3 3 3 3 3 3 3 3 3 3 3 3 3 3 3 3 3 4 4 3 3 3 3 3 3 4 5 5 7 9 11 13 14 14 15 15 16
5 4 4 4 4 4 4 4 4 4 4 3 3 3 3 3 4 3 3 3 3 3 3 3 3 3 3 3 3 4 4 4 4 4 4 4 4 4 4 4 3 3 3 3 3 3 3 3 3 3 3 3 3 3 3 3 3 3 3 3 3 3 3 3 3 3 3 3 4 4 3 3 3 3 4 4 5 7 8 10 12 13 13 14 15
5 5 4 4 4 4 4 4 4 4 4 4 4 3 4 3 3 4 4 3 3 3 3 3 3 3 3 3 3 3 4 4 4 4 4 4 4 4 4 3 3 3 3 3 3 3 3 3 3 3 3 3 3 3 3 3 3 3 3 3 3 3 3 3 3 3 3 3 3 4 4 4 4 3 3 3 4 5 6 8 9 11 12 12 12
5 5 5 5 4 4 4 4 4 4 4 4 4 4 4 4 4 4 4 4 4 4 3 3 3 3 4 4 4 4 4 4 4 4 4 4 4 4 4 4 4 3 3 3 3 3 3 3 3 3 3 3 3 3 3 3 2 3 3 3 3 3 3 3 3 3 3 2 3 3 3 4 4 4 4 4 4 4 4 5 7 8 10 10 11
6 6 6 6 5 5 5 4 4 4 4 4 4 4 4 4 4 4 4 4 4 4 4 4 3 3 3 3 3 4 4 4 4 4 4 4 4 4 4 4 4 4 3 3 3 3 3 3 3 4 3 3 3 3 3 3 3 3 3 3 3 3 3 3 3 3 3 3 2 2 3 3 3 4 4 4 4 4 4 4 5 6 8 9 10
6 6 6 6 6 6 5 5 5 5 5 4 4 4 4 4 4 4 4 4 4 4 4 4 4 4 4 4 3 3 3 3 4 4 4 4 4 4 4 4 4 4 3 3 3 3 4 4 3 3 3 3 3 3 3 3 3 3 3 2 3 3 3 3 3 3 3 3 3 3 2 3 3 3 4 4 4 4 4 4 4 5 5 7 9
6 6 6 6 7 7 6 6 5 5 5 5 5 5 5 5 4 4 4 4 4 4 4 4 4 4 4 4 4 4 4 3 3 3 3 4 4 4 4 4 4 4 4 4 4 4 3 4 4 3 3 4 3 3 3 3 3 3 3 3 3 2 3 2 2 3 3 3 3 3 3 3 3 3 3 4 4 5 5 5 4 4 4 5 6
6 6 7 6 6 7 7 7 6 6 5 5 5 5 5 5 5 5 4 4 4 4 4 4 4 4 4 4 4 4 4 4 4 4 4 4 4 4 3 4 4 4 4 4 4 4 4 4 3 3 3 4 4 4 3 3 3 3 3 3 3 2 3 3 3 3 3 3 3 3 3 3 3 3 3 3 4 4 5 5 5 5 5 5 5
6 6 6 7 7 7 7 8 7 7 6 6 5 5 5 5 5 5 5 5 5 5 5 5 5 5 4 5 4 4 4 4 4 4 4 4 4 4 4 4 4 4 4 4 4 4 4 4 4 3 3 4 4 4 4 3 3 3 3 3 3 2 3 3 3 3 3 3 3 3 3 3 3 3 3 3 3 3 4 5 5 5 5 5 5
6 6 6 7 7 7 7 8 8 8 7 7 6 6 6 5 5 6 5 5 5 5 5 5 5 5 5 5 5 4 4 4 4 4 4 4 4 4 4 4 4 4 4 4 4 4 4 4 4 4 4 4 4 4 4 4 3 3 3 3 2 2 3 3 3 3 3 3 3 3 3 3 3 3 3 3 3 3 3 4 4 5 5 5 5
6 6 6 6 7 7 7 7 8 8 8 8 7 6 6 6 6 6 6 6 5 5 5 5 5 5 5 5 5 5 4 4 4 4 4 4 4 4 4 4 4 4 4 4 4 4 4 4 4 4 4 4 4 4 4 4 4 3 3 3 3 3 3 3 3 3 3 3 3 3 3 3 3 3 3 3 3 3 3 3 4 4 5 5 5
7 6 6 6 6 7 7 7 7 8 8 8 8 7 7 7 6 6 6 6 6 6 6 5 5 5 5 5 5 5 5 5 5 4 4 4 4 4 4 4 4 4 4 4 4 4 4 4 4 4 4 4 4 4 4 4 4 4 3 3 3 3 3 4 3 3 3 3 3 3 3 3 3 3 3 3 3 3 3 3 3 4 4 5 6
8 7 6 7 6 6 7 8 8 8 8 8 8 8 8 8 8 8 6 6 6 6 6 6 6 5 5 5 5 5 5 5 5 5 5 4 4 4 4 4 4 4 4 4 4 4 4 4 4 4 4 4 4 4 4 4 4 4 4 3 3 4 4 4 4 4 4 3 3 3 3 3 3 3 3 3 3 3 4 3 3 4 4 4 5
8 8 7 7 6 6 6 7 7 8 8 9 9 9 9 9 10 10 9 8 7 6 6 6 6 6 6 5 5 5 5 5 5 5 5 5 5 5 4 4 4 4 4 4 4 4 4 4 4 4 4 4 4 4 4 4 4 4 4 4 4 4 4 4 4 4 4 3 3 3 3 3 3 3 3 3 3 3 4 4 4 4 4 4 4
7 8 8 7 7 7 7 6 7 7 8 8 9 10 11 11 11 11 11 11 10 9 8 7 6 6 6 6 6 5 5 5 5 5 5 5 5 5 5 5 5 4 4 4 4 4 4 5 5 5 4 4 4 4 4 4 4 4 4 4 4 4 4 4 4 4 4 4 4 4 4 3 3 3 3 3 3 3 4 4 4 4 4 4 4
7 8 8 8 7 7 7 7 6 7 7 7 7 8 10 12 12 12 12 12 12 12 10 8 7 6 7 7 7 6 6 5 5 5 5 5 5 5 5 5 5 5 5 4 4 4 4 4 4 5 5 5 5 5 5 5 5 5 5 5 5 5 5 5 5 5 5 4 4 4 4 4 3 3 3 3 3 3 3 3 4 4 4 4 4
7 8 8 9 8 7 7 6 7 7 7 7 7 7 7 8 10 12 13 12 12 12 12 11 9 8 7 7 7 7 7 6 6 5 5 5 5 5 5 5 5 5 5 5 5 5 4 5 4 5 5 5 5 5 5 5 5 5 5 5 5 5 5 5 5 5 5 5 4 4 4 4 4 4 4 3 3 3 4 4 4 4 4 4 4
7 7 8 8 9 8 7 7 7 7 7 7 8 8 8 7 7 9 11 13 13 13 13 13 12 11 10 8 7 7 7 7 7 6 6 6 6 5 5 5 5 5 5 5 5 5 5 5 5 5 5 5 5 5 5 5 5 5 5 5 5 5 5 5 5 5 5 5 5 5 5 5 4 4 4 4 4 3 4 4 4 4 4 4 4
8 7 7 8 9 9 9 7 7 7 7 7 7 8 9 9 8 7 9 11 13 15 15 14 14 14 14 12 10 9 8 8 8 7 7 6 6 6 6 5 5 5 5 5 5 5 5 5 5 5 5 5 5 5 5 5 5 5 5 5 5 5 6 6 6 5 5 5 5 5 5 5 5 5 5 4 4 4 4 4 4 4 4 4 4
8 7 7 8 8 9 10 9 7 7 7 7 7 7 8 9 9 9 8 8 10 13 15 17 16 16 15 15 14 13 10 8 8 8 8 8 7 6 6 6 6 5 5 5 5 5 5 5 5 5 5 5 5 5 5 5 5 5 5 5 5 6 6 6 6 5 5 5 5 5 6 6 5 5 5 5 5 5 4 4 4 4 4 4 4
9 8 7 7 8 8 9 10 9 8 7 7 7 7 7 7 9 10 10 9 9 10 12 15 17 18 17 16 16 16 15 12 10 9 8 8 8 8 7 6 6 6 5 5 5 5 5 5 5 5 5 5 5 5 5 5 5 5 5 5 5 5 5 6 6 6 6 6 6 6 6 6 6 6 5 5 5 5 5 5 5 5 5 5 4
11 9 8 8 8 8 8 9 9 9 8 7 7 7 7 7 7 8 9 10 10 10 10 13 16 18 19 17 16 16 16 15 14 12 10 9 8 8 8 7 7 6 6 5 5 5 5 5 5 5 5 5 5 5 5 5 5 5 5 5 5 5 5 5 6 6 6 6 6 6 6 6 6 6 6 5 5 5 5 6 6 6 6 5 5
13 10 9 8 8 8 8 9 9 9 9 8 7 7 7 7 7 7 7 8 9 10 10 11 13 16 19 19 18 18 17 17 16 16 14 13 11 9 9 8 8 7 6 6 6 5 5 5 5 5 5 5 5 5 5 5 5 5 5 5 5 5 5 5 5 5 6 6 6 6 6 6 6 6 6 6 6 6 6 6 6 6 6 6 6
15 12 10 8 8 8 8 8 9 10 9 9 8 7 7 7 7 7 7 7 8 9 9 10 10 12 16 19 20 20 19 18 17 17 17 16 15 13 11 9 9 9 8 7 7 6 6 6 5 5 5 5 5 6 5 5 5 5 5 5 5 5 5 5 5 5 5 6 6 6 7 7 7 7 7 6 6 6 6 6 6 6 6 6 6
17 14 11 9 8 8 8 8 9 9 10 9 8 8 7 7 7 8 7 7 7 8 9 10 10 10 12 15 19 20 21 20 19 19 18 18 17 16 15 13 11 10 9 9 8 8 7 6 6 6 6 6 5 6 6 6 6 6 6 6 6 6 6 5 5 6 6 6 6 6 6 6 7 7 7 7 7 7 7 7 7 7 6 7 7
20 17 13 10 9 8 8 8 8 9 10 10 9 8 8 7 7 8 8 8 7 8 8 9 10 10 10 12 15 18 21 23 22 21 21 19 18 17 17 16 16 14 12 10 9 9 9 8 7 6 6 6 6 6 6 6 6 6 6 6 6 6 6 6 6 6 6 6 6 6 6 6 6 7 7 7 8 8 8 7 7 7 7 7 7
22 21 17 12 10 9 8 8 8 8 9 10 10 9 8 8 8 7 8 8 8 8 8 9 10 10 10 11 12 14 18 22 25 24 23 22 21 20 19 18 18 18 17 15 13 11 10 10 9 9 8 7 6 6 6 6 6 6 7 7 7 7 7 7 7 6 6 6 6 6 6 6 6 6 7 7 7 8 8 8 8 8 7 7 7
23 23 20 16 12 10 9 9 8 8 9 9 10 10 9 8 8 8 8 8 8 8 8 8 9 10 11 11 11 12 14 19 24 26 26 25 23 23 22 20 19 19 19 19 18 17 14 12 11 10 10 9 8 7 6 6 6 6 7 7 7 8 8 8 7 7 7 7 7 7 7 6 6 6 6 7 7 7 8 8 8 8 8 8 7
25 23 21 18 14 11 10 9 8 8 8 9 10 10 10 9 8 8 8 8 8 8 9 9 9 10 10 11 11 11 12 14 19 24 27 27 26 25 24 23 22 21 20 20 20 21 20 19 16 13 12 11 10 9 8 8 7 6 7 7 7 7 8 8 8 8 8 8 8 8 8 7 7 7 7 7 7 7 8 8 8 9 9 9 8
29 24 21 20 16 13 11 10 9 8 8 8 9 10 10 10 9 8 8 8 8 8 9 9 9 9 10 11 11 12 11 12 14 19 24 28 29 28 26 25 24 23 23 23 22 22 22 23 22 21 18 15 13 11 10 10 9 8 7 7 7 7 7 7 8 8 8 8 8 8 9 8 8 8 8 8 7 8 8 8 8 9 9 9 9
34 26 23 21 19 15 12 12 10 9 8 8 9 10 11 10 10 9 8 8 8 8 9 9 10 10 10 10 11 12 12 12 12 14 19 24 28 30 30 28 26 25 24 24 24 24 24 24 24 24 24 23 20 18 15 13 11 11 10 9 8 7 7 7 7 7 7 8 8 8 8 9 9 9 9 9 8 8 8 8 9 9 9 9 10
38 30 25 23 21 17 14 13 12 10 9 8 8 9 10 11 10 9 9 8 8 8 9 9 10 10 10 10 11 12 13 13 12 12 14 18 23 29 32 32 30 28 26 25 25 25 25 25 25 25 25 25 25 25 23 20 17 15 13 12 11 10 9 8 8 7 7 7 7 7 8 8 8 9 9 9 9 9 9 9 9 9 9 9 10
40 33 27 24 23 20 16 13 13 12 10 9 8 8 9 11 11 10 10 9 8 9 9 9 10 11 11 11 11 11 12 13 14 14 13 14 17 22 28 32 34 33 31 29 27 26 26 26 26 27 27 27 27 27 27 27 25 22 20 17 15 13 12 11 10 10 9 8 7 7 7 7 8 8 8 9 9 9 10 10 10 10 10 10 10
41 36 31 26 24 22 18 15 14 13 11 10 9 9 9 10 11 11 10 9 9 9 9 9 10 11 12 12 12 11 11 12 13 14 14 14 15 16 21 27 32 36 36 35 32 30 29 28 27 27 27 28 28 28 28 29 29 28 27 25 23 21 18 16 14 13 12 11 10 10 9 8 8 8 7 8 8 8 9 10 10 10 11 11 11
41 39 34 29 26 24 21 17 15 14 13 11 10 9 9 10 11 11 11 10 9 9 9 9 10 10 11 12 13 12 12 12 12 13 14 15 15 15 16 20 25 31 36 39 39 36 33 31 30 30 29 28 28 29 29 29 29 30 30 30 30 29 27 24 22 19 17 16 15 14 12 11 11 10 9 8 8 8 8 8 9 9 10 10 11
42 41 37 30 27 26 23 19 17 16 14 12 10 9 9 9 10 11 11 11 10 10 9 9 9 10 11 12 13 13 13 13 12 12 13 14 15 15 16 17 19 23 29 35 40 41 40 37 34 33 32 31 30 30 30 30 30 30 30 30 31 31 31 31 30 28 26 24 22 21 19 17 16 14 13 12 11 10 10 9 9 9 9 9 9
43 43 39 33 29 27 25 22 19 18 16 14 12 10 9 9 10 11 11 11 11 10 9 9 9 10 10 11 13 13 14 14 14 13 13 13 14 15 15 16 17 19 22 27 33 39 42 44 42 38 36 34 34 33 32 31 31 31 31 31 31 32 32 32 32 32 32 31 30 29 29 28 26 24 23 21 19 18 17 15 14 13 12 11 11
44 45 43 38 33 30 29 26 23 20 19 17 14 12 10 10 10 11 11 11 11 11 10 10 10 9 10 11 12 13 14 15 15 15 14 13 13 14 15 16 16 17 19 22 26 31 37 43 47 46 43 40 37 36 36 35 34 32 32 32 32 32 33 33 34 34 34 33 33 33 33 33 33 33 32 31 30 29 27 26 25 23 21 20 19
46 48 47 42 37 33 32 29 25 22 21 19 16 13 11 10 10 10 11 12 12 11 11 10 10 10 10 10 11 12 13 15 15 15 15 15 14 14 14 15 16 16 17 19 22 26 31 36 43 49 51 49 45 41 39 38 37 36 34 33 33 33 33 34 35 35 36 36 36 35 35 35 34 34 34 34 34 34 34 34 34 34 33 32 31
Wind_Speed
31 31 31 31 32 34 35 38 40 42 44 45 46 46 47 47 49 50 52 53 55 57 58 60 61 62 63 65 66 67 69 70 72 74 75 78 80 82 85 87 90 92 94 97 100 103 106 108 110 112 115 117 119 122 124 126 128 130 132 133 135 137 137 138 138 139 141 144 147 148 149 149 150 150 150 148 147 147 146 146 146 147 147 146 145
30 30 29 30 31 32 32 34 36 38 40 42 44 45 45 46 46 47 48 49 50 53 55 56 58 60 62 63 64 65 66 68 70 71 74 76 78 79 81 83 85 87 90 92 94 97 100 102 105 108 110 112 114 116 118 121 123 124 126 128 130 131 133 134 135 136 138 141 143 146 149 149 149 150 150 150 149 148 147 147 147 147 147 147 146
31 29 28 27 28 29 30 31 32 34 36 38 40 41 42 43 44 45 46 46 47 49 51 53 54 57 59 61 62 64 65 67 68 70 72 74 75 76 77 79 81 83 85 88 90 92 95 97 100 103 105 107 110 112 114 116 118 120 121 123 124 126 128 129 130 131 133 137 140 143 146 148 148 148 149 150 150 150 149 148 148 148 148 149 148
33 31 28 27 26 26 28 29 30 31 33 35 37 37 38 39 40 42 43 43 44 46 48 50 52 54 56 58 60 62 64 66 67 69 70 71 72 73 74 76 78 80 82 85 87 89 91 93 95 97 99 102 105 108 111 113 115 117 118 120 121 122 123 124 125 126 128 131 136 139 142 145 146 147 148 148 149 150 150 149 149 149 149 149 150
34 33 31 29 27 26 25 26 27 29 30 32 33 34 34 36 37 38 39 40 41 43 45 47 49 51 53 55 58 60 62 64 66 67 68 69 70 71 73 75 77 79 80 82 83 85 87 89 91 94 95 98 100 103 106 109 112 114 115 117 118 119 121 121 121 121 122 125 129 134 138 141 143 145 145 146 147 148 149 150 150 150 150 150 150
32 32 32 31 30 28 26 25 25 26 27 28 30 31 32 33 34 35 37 38 39 40 42 44 45 46 49 52 54 56 58 60 62 64 65 66 68 70 73 75 76 78 79 81 82 83 85 87 89 90 92 94 97 99 102 104 107 109 111 113 115 117 118 119 119 118 118 119 122 128 132 136 139 142 143 144 144 145 147 149 150 150 150 150 151
31 31 31 30 30 29 28 27 26 25 24 25 26 28 30 31 31 32 33 36 38 39 40 41 42 42 44 47 49 51 53 55 57 59 60 63 66 69 72 73 75 76 78 79 80 82 83 85 86 87 89 91 93 95 97 99 101 103 105 108 111 113 115 116 116 116 116 115 117 121 125 129 134 137 139 141 142 143 144 146 148 149 150 150 150
32 30 30 29 28 28 27 27 27 26 25 24 23 24 26 28 30 30 31 33 35 37 38 38 38 39 41 43 44 45 47 49 51 53 55 59 63 67 68 69 71 73 75 76 78 79 81 82 83 85 86 87 89 91 92 94 95 97 100 103 105 107 109 110 112 113 114 114 115 117 120 123 127 131 135 138 139 140 140 142 144 146 148 149 150
33 31 29 28 27 27 26 25 25 25 25 25 23 23 23 25 27 28 29 30 32 34 36 36 35 36 38 39 40 41 42 44 46 48 51 55 59 60 61 63 66 69 70 72 74 76 78 80 81 83 84 85 86 88 89 90 91 93 95 97 99 101 103 105 107 108 109 111 112 115 117 119 122 125 129 132 134 136 137 139 141 143 145 148 149
35 32 31 30 29 27 26 25 24 23 23 24 24 23 22 22 23 25 27 28 29 30 31 32 32 32 33 35 36 37 39 41 43 45 48 51 53 54 55 59 62 64 66 68 71 73 75 77 78 80 81 83 85 86 88 88 89 90 92 93 94 96 98 100 101 103 104 106 108 111 113 115 118 121 123 126 130 132 135 137 138 140 142 145 147
39 35 33 32 31 30 28 27 25 24 22 22 23 23 22 22 22 22 24 25 26 27 27 28 29 29 30 31 33 35 37 39 42 44 46 48 49 50 52 55 58 60 62 64 66 68 70 72 74 76 78 80 82 84 85 86 88 89 90 91 92 93 94 94 95 97 98 101 104 106 109 110 114 118 120 122 126 129 132 134 135 137 139 141 143
42 39 36 34 33 32 30 29 27 25 23 22 21 22 22 21 21 21 22 23 24 24 25 25 25 26 27 28 30 33 35 38 40 42 44 45 46 47 49 52 55 58 59 60 62 64 66 68 70 72 75 77 79 81 82 83 85 86 87 89 90 90 91 91 92 93 94 96 99 101 103 105 108 113 117 119 123 126 129 131 133 135 136 137 139
45 42 39 37 34 33 32 30 29 27 25 24 22 21 21 21 21 21 21 21 22 23 23 23 24 24 25 26 28 30 32 34 37 39 41 43 44 46 48 51 55 57 58 59 61 62 63 65 66 68 71 73 75 77 78 80 81 83 84 86 87 88 88 89 89 91 92 93 94 96 98 100 104 108 112 115 119 123 126 129 131 133 134 134 135
48 45 42 40 37 34 33 32 30 29 27 26 24 23 21 20 20 21 21 21 21 22 22 23 23 23 24 24 26 27 29 31 33 35 37 40 42 45 48 51 54 56 57 58 59 60 61 62 64 66 67 69 71 72 74 76 77 79 80 82 83 85 86 86 87 88 89 90 92 93 94 96 99 103 107 111 115 120 123 126 129 131 132 132 133
51 48 46 43 41 38 36 34 32 31 29 27 26 24 23 21 20 20 20 20 20 21 21 22 22 22 23 23 24 25 26 28 29 31 33 35 38 41 44 47 50 52 54 55 56 57 58 60 62 64 65 66 68 69 70 71 73 74 76 77 79 81 82 84 85 86 86 87 88 90 92 93 94 98 102 106 110 114 118 122 126 129 131 131 132
53 51 49 46 43 41 39 36 34 32 31 29 27 25 24 22 21 20 20 20 20 20 21 21 21 22 22 22 23 24 25 26 27 28 30 31 33 36 38 41 44 47 49 50 52 53 55 57 59 60 62 63 65 66 67 68 69 70 72 73 75 76 78 81 82 83 84 85 85 87 88 90 92 94 97 101 105 109 113 117 121 125 128 129 130
55 53 51 48 46 44 42 39 37 34 32 30 28 27 25 24 22 21 20 20 20 20 20 21 22 22 22 22 23 24 25 26 27 28 29 30 31 32 35 37 40 42 44 45 47 49 51 54 56 57 58 60 62 62 63 63 65 66 68 70 72 73 75 76 78 79 81 83 83 84 84 86 88 91 94 96 100 104 108 112 115 120 123 126 128
55 53 51 49 48 46 44 42 40 38 36 33 31 29 27 25 24 23 22 21 20 20 20 20 21 22 23 23 23 24 25 26 27 28 29 30 30 31 32 34 36 38 39 41 43 45 47 50 52 53 54 56 57 58 59 60 61 63 65 67 69 71 72 73 74 76 77 79 80 81 81 82 84 87 90 93 95 98 102 107 110 114 118 122 125
56 54 52 50 48 47 45 43 42 40 38 36 34 31 29 26 25 23 23 22 21 21 20 20 20 21 22 23 23 24 25 26 28 29 30 30 31 31 31 32 33 34 36 37 39 41 44 46 48 50 51 52 53 54 56 57 59 60 61 63 65 68 69 70 71 72 74 75 77 78 79 80 81 83 86 89 92 94 98 102 106 109 113 116 120
58 55 53 51 49 48 46 44 43 41 39 37 35 33 30 28 26 24 23 22 22 21 21 21 20 21 21 22 23 24 25 26 27 28 29 30 30 31 31 31 32 32 33 35 36 38 41 43 44 46 47 48 49 51 52 54 56 57 58 59 62 64 64 65 67 70 71 72 74 75 76 78 79 80 82 85 89 92 95 98 101 105 108 112 115
60 58 55 52 50 48 46 45 43 41 40 38 36 34 32 30 27 25 23 22 21 20 21 21 21 21 21 22 22 23 24 26 27 28 28 29 29 30 30 30 31 32 32 34 35 37 39 40 42 43 44 45 47 48 49 51 53 54 55 57 60 60 59 61 64 66 68 70 71 72 74 75 76 78 79 81 85 89 92 95 98 101 104 108 111
62 60 57 54 51 49 47 45 43 42 40 37 35 34 32 31 29 27 25 23 21 20 19 19 20 20 21 21 22 23 23 25 26 27 28 29 29 29 29 29 30 30 31 32 34 36 37 38 39 40 41 43 44 46 48 49 50 51 53 55 56 56 56 59 61 63 64 67 68 69 71 72 73 75 76 78 81 84 88 91 94 97 100 103 107
62 60 58 55 53 50 48 45 44 42 40 39 36 34 32 30 29 28 27 26 24 23 21 19 18 18 19 20 21 22 23 24 25 26 27 28 29 29 29 29 30 30 30 31 32 34 35 36 38 38 39 41 42 44 46 47 48 50 51 52 52 53 54 56 59 60 63 64 66 67 69 70 71 72 73 75 77 79 83 86 90 93 96 98 102
63 60 58 56 54 52 50 47 45 43 41 40 38 37 35 33 31 29 28 27 26 25 24 22 21 19 18 19 20 21 22 23 24 25 26 27 28 28 29 29 29 30 31 31 32 32 33 35 36 37 38 39 40 42 44 45 47 48 49 49 50 50 52 55 57 59 61 63 64 66 67 68 69 69 70 72 73 76 78 82 85 89 92 95 98
65 61 59 57 55 53 51 49 47 45 43 41 40 38 36 35 33 32 30 28 26 25 24 24 23 22 20 19 19 19 20 21 23 24 25 26 27 28 28 28 28 29 29 30 31 32 32 33 34 35 36 37 39 40 42 44 46 47 48 48 48 49 51 53 55 57 59 62 63 64 65 65 66 67 68 69 71 72 75 78 81 85 88 91 95
65 62 60 57 55 53 51 49 47 45 44 43 41 40 38 36 34 33 32 31 29 28 27 26 25 24 23 22 20 19 19 19 20 22 23 24 25 26 27 27 27 27 28 28 29 30 31 31 32 33 34 36 38 39 41 42 44 45 46 46 47 48 50 52 53 55 58 59 60 61 61 62 64 66 67 68 69 71 73 75 78 81 84 87 91
67 64 61 58 55 53 51 49 47 45 43 41 39 39 38 37 36 34 32 31 30 29 28 27 26 25 24 23 22 21 20 19 18 19 20 21 23 24 25 26 26 27 27 27 27 28 28 29 30 31 32 34 36 37 39 41 42 44 44 45 46 47 49 51 51 53 55 56 57 57 59 61 63 65 66 67 68 70 71 73 75 78 81 84 86
70 67 63 60 57 54 52 50 48 46 45 42 39 36 34 34 35 34 32 30 28 27 26 26 25 24 24 23 23 22 21 20 19 18 18 19 20 21 22 23 24 25 26 27 27 27 27 27 27 28 30 31 33 35 37 39 40 42 43 44 45 46 48 49 49 50 52 54 55 56 58 59 61 62 63 65 66 68 69 71 72 74 77 79 82
72 69 66 62 59 56 53 51 48 47 45 45 43 40 36 32 31 32 32 31 28 27 26 25 25 24 23 23 22 22 22 21 20 19 19 19 19 19 20 21 22 23 24 25 26 27 27 27 26 27 27 28 30 32 34 36 38 40 41 43 44 45 46 47 48 49 50 51 53 54 55 56 58 60 61 63 64 65 67 68 70 72 73 75 78
72 69 66 64 61 58 55 52 50 47 45 43 43 43 42 38 34 31 31 31 31 29 27 25 24 24 23 22 22 22 21 21 20 19 19 19 20 20 20 20 20 21 22 23 24 25 26 26 26 26 26 27 28 29 31 33 35 37 39 41 42 44 45 45 46 47 48 49 50 51 52 54 56 58 60 61 62 63 64 66 68 69 71 73 75
75 70 66 64 61 59 57 54 51 48 46 43 41 40 41 41 40 36 32 31 30 30 29 27 25 24 23 23 22 21 21 20 20 19 18 18 19 20 20 20 20 20 20 21 22 23 24 24 25 25 26 26 27 28 29 30 32 34 37 39 40 42 43 44 45 45 45 46 48 49 50 52 54 56 57 59 59 60 61 63 65 67 69 71 73
78 73 68 65 62 60 58 56 54 51 47 45 42 40 38 38 39 39 37 33 30 29 29 28 26 25 24 23 22 22 21 20 19 19 18 17 17 18 19 19 20 20 20 20 20 21 21 22 23 24 25 26 26 27 28 29 30 31 33 35 37 39 40 42 43 43 43 43 45 47 49 51 52 54 55 56 56 57 58 59 61 64 67 69 71
81 76 71 67 64 61 59 56 55 53 50 47 44 42 39 36 35 36 37 36 34 31 30 28 27 26 25 24 22 22 21 20 19 18 18 17 17 17 17 18 18 19 19 19 19 19 20 20 21 22 23 24 25 26 27 28 28 29 31 32 34 36 37 39 40 41 42 42 43 44 47 49 50 51 52 53 54 54 55 56 58 60 63 66 67
84 79 74 69 66 63 61 57 55 54 53 50 46 43 41 39 36 33 33 33 34 33 31 30 28 27 25 24 23 22 22 21 19 18 18 17 17 16 16 16 16 17 17 17 18 18 19 19 20 20 21 22 23 24 26 26 27 28 29 30 31 33 34 35 37 38 39 40 41 43 44 46 47 48 50 51 52 52 52 54 55 57 59 61 63
86 81 76 71 67 64 62 60 57 54 53 51 49 46 43 41 39 36 33 31 30 30 29 28 28 27 26 25 23 22 22 21 20 19 18 17 17 17 16 16 15 15 15 16 16 17 18 18 19 19 20 20 21 22 24 25 26 27 28 29 29 30 31 33 34 35 36 38 39 41 42 44 45 46 47 49 49 50 50 51 52 54 56 57 58
87 82 77 73 68 64 62 60 58 55 53 52 50 48 45 43 41 39 36 33 31 30 29 27 26 26 26 25 24 23 22 22 21 20 19 18 17 16 16 16 16 15 15 14 15 15 16 17 17 18 19 19 20 20 22 23 24 26 27 28 28 29 30 30 32 33 34 35 37 38 39 41 42 43 45 46 47 48 49 49 50 51 52 53 53
89 83 78 74 70 65 62 60 58 56 54 52 51 50 48 45 43 41 38 36 33 31 30 29 27 26 25 25 24 24 23 22 22 21 21 20 18 17 16 16 16 16 15 15 14 14 14 15 16 16 17 18 18 19 20 21 22 24 25 26 27 28 29 29 30 31 32 33 35 36 37 38 39 41 42 44 45 46 47 48 49 49 50 50 50
90 85 80 76 71 67 63 60 58 56 54 52 50 50 49 47 44 42 40 38 35 32 30 29 28 27 26 25 25 24 23 22 22 22 22 21 20 19 18 16 16 15 15 15 15 14 14 14 14 15 15 16 17 18 19 20 21 22 23 24 25 26 27 28 29 30 31 31 32 34 35 36 37 38 39 41 42 43 45 46 47 48 48 49 49
91 86 81 77 73 69 65 61 58 56 55 52 50 49 48 47 46 44 42 40 37 34 31 29 28 27 26 25 25 24 23 22 22 22 22 22 21 21 20 18 17 16 15 15 15 15 15 14 14 14 14 15 16 17 18 19 19 20 21 22 23 24 25 26 27 28 29 30 30 31 32 33 34 35 36 38 39 40 42 43 44 45 46 46 46
92 87 82 78 74 71 68 63 59 57 56 54 51 49 48 47 47 45 43 41 39 36 33 30 29 27 26 25 24 24 23 22 22 22 21 21 21 21 21 20 19 18 17 16 15 15 15 15 15 14 14 15 15 16 17 18 18 19 20 21 22 23 23 24 25 26 27 28 28 29 29 30 31 32 33 34 36 37 39 40 41 43 43 44 44
93 88 83 78 75 73 70 66 62 58 57 55 53 51 49 48 47 46 44 42 40 37 35 32 29 28 27 25 24 24 23 22 22 21 21 21 21 21 21 20 20 19 18 17 16 16 15 15 15 15 15 16 16 16 16 16 17 18 19 20 21 22 23 23 24 25 25 26 27 27 28 28 28 29 30 31 32 34 35 37 38 39 40 41 42
94 90 85 80 76 74 71 68 64 60 57 56 54 52 50 49 48 47 45 44 41 39 36 33 30 28 27 26 25 24 23 23 22 21 21 21 20 20 20 20 20 20 19 19 18 17 17 16 16 16 16 16 16 16 16 16 17 17 18 19 19 20 21 22 23 24 25 25 26 26 27 27 27 28 28 29 30 31 32 34 35 36 37 38 39
94 91 87 82 77 74 73 70 67 63 59 56 55 53 51 49 48 47 46 45 43 40 37 35 32 30 28 26 25 24 24 23 22 22 21 21 21 20 20 20 20 20 19 19 19 18 18 17 17 17 16 16 16 17 17 17 17 17 17 18 18 19 20 20 21 22 23 24 25 25 26 26 26 27 27 28 28 29 30 31 32 34 35 36 37
94 91 88 83 79 75 73 71 69 65 61 58 56 54 51 50 48 48 47 46 44 42 39 36 34 31 29 27 26 25 24 23 23 22 22 21 21 21 20 20 20 20 20 20 19 19 18 18 18 18 18 17 17 17 17 18 18 18 18 18 18 18 18 19 20 20 21 22 23 24 25 25 26 26 26 27 27 28 29 30 31 32 33 34 35
93 91 89 85 81 76 74 72 69 66 63 59 57 55 52 50 48 48 47 46 45 43 41 38 36 33 31 29 27 26 25 24 24 23 22 22 22 21 21 21 20 20 20 20 20 20 19 19 18 18 18 18 18 18 18 18 18 19 19 19 19 19 19 19 19 19 20 20 21 22 23 24 24 25 26 26 26 27 27 28 29 30 31 32 32
92 90 88 86 82 78 74 72 70 68 64 60 57 55 54 51 49 47 47 47 46 44 42 40 37 35 33 31 29 27 26 25 25 24 23 23 22 22 22 22 21 21 21 20 20 20 20 20 19 19 18 18 18 18 19 19 19 19 19 20 20 20 20 20 20 20 20 20 20 20 21 22 23 24 24 25 26 26 26 27 27 28 29 29 30
92 90 88 86 83 79 75 73 71 69 66 62 58 56 54 52 50 48 47 46 46 45 43 41 39 37 35 33 31 29 27 26 25 25 25 24 23 23 23 22 22 22 22 21 21 21 21 21 20 20 19 19 19 19 19 19 19 20 20 20 20 20 21 21 21 21 21 21 21 21 21 21 22 22 23 23 24 25 25 26 27 27 28 28 29
91 89 87 85 83 80 76 73 71 69 67 63 59 56 54 53 50 48 47 46 46 45 44 43 40 38 36 34 33 31 29 28 27 26 25 25 25 24 24 23 23 23 23 23 22 22 22 21 21 21 21 20 20 19 19 19 19 20 20 20 20 20 20 21 21 22 22 22 22 22 22 22 22 22 22 22 23 23 23 24 25 25 26 27 27
90 88 87 85 83 81 77 74 72 70 68 65 62 58 55 54 52 49 47 45 45 45 45 44 42 39 37 35 34 33 31 30 29 27 26 26 25 25 25 25 25 24 24 24 24 23 23 22 22 22 22 21 21 20 20 20 20 20 20 20 20 20 20 20 21 21 21 22 22 22 22 22 22 23 23 23 23 23 23 23 23 24 24 25 25
89 88 86 85 83 81 78 75 72 71 69 67 64 60 56 54 52 50 48 46 45 44 44 44 43 41 39 36 35 33 33 32 31 29 28 27 26 26 26 26 26 26 26 26 26 25 25 24 23 23 23 23 22 22 21 21 21 21 20 20 20 20 20 20 20 20 21 21 21 21 22 22 23 23 24 24 24 24 24 24 24 24 25 25 25
88 87 86 84 83 82 79 76 73 71 69 67 65 62 58 55 53 51 49 47 45 44 44 43 43 42 40 38 36 34 33 32 32 31 30 29 28 27 26 26 26 26 27 27 27 27 27 26 25 25 24 24 24 24 23 23 23 22 22 21 21 20 20 20 20 20 20 20 21 21 21 22 23 23 24 24 25 25 25 25 26 26 26 27 27
Wind_Direction
306 301 296 290 284 279 275 273 271 270 268 266 264 261 258 256 254 252 251 250 249 249 249 248 248 248 248 248 247 247 246 246 245 244 243 242 241 240 239 240 240 240 240 239 238 238 238 239 239 239 240 240 241 241 242 242 242 242 242 241 241 240 240 239 237 237 237 238 239 240 239 238 238 239 239 239 238 238 239 240 241 242 243 242 242
312 307 302 296 290 285 280 276 273 271 270 269 267 265 263 260 258 256 253 251 249 249 248 248 247 247 247 246 246 246 245 245 244 244 244 243 242 241 240 240 240 240 240 240 240 240 239 239 239 239 239 240 240 241 242 242 243 243 243 243 242 242 241 240 239 237 237 237 238 239 240 240 239 238 239 239 239 238 238 238 239 241 242 242 242
319 313 308 302 296 291 286 281 277 274 272 270 269 267 266 264 262 260 258 255 252 250 248 247 246 245 245 245 245 245 244 244 243 243 243 243 243 243 242 242 241 241 241 241 240 240 240 239 239 239 239 239 239 239 240 241 242 242 243 243 243 242 242 241 239 238 237 237 238 238 239 240 240 239 238 238 239 238 238 238 238 239 240 242 242
324 321 316 310 303 296 291 286 282 278 275 273 271 269 268 267 265 262 260 258 255 253 250 248 246 244 244 244 244 243 243 243 242 242 242 242 242 243 243 243 242 242 242 241 241 241 240 240 240 240 239 239 238 238 239 239 240 240 241 242 242 242 242 241 240 238 237 237 237 238 238 239 240 240 239 238 238 239 239 238 238 238 239 240 241
328 325 322 318 312 305 298 292 287 283 279 276 274 272 270 268 266 264 262 259 257 254 252 250 248 246 244 243 243 243 242 242 242 242 242 242 242 242 241 241 241 241 242 242 242 241 241 241 241 240 240 240 239 239 238 238 238 239 239 240 241 241 241 242 241 239 237 236 236 237 237 238 239 240 240 239 238 238 239 239 238 238 238 239 240
331 328 325 323 319 314 309 301 294 288 283 280 278 276 273 269 266 264 263 261 258 255 254 253 250 248 247 245 244 244 243 243 243 244 243 243 242 242 241 240 240 240 240 241 241 241 241 241 241 241 240 240 240 240 239 239 239 239 239 239 240 240 240 241 241 240 238 236 235 236 236 237 238 239 239 240 239 238 238 238 239 239 239 239 239
337 331 328 325 322 319 315 311 305 299 292 286 282 278 276 272 269 265 263 262 260 258 255 254 253 251 250 248 247 246 245 245 244 244 243 243 243 242 242 242 242 242 242 242 241 241 241 241 242 242 242 241 241 241 241 240 240 240 240 239 239 240 240 240 240 240 239 238 236 236 235 236 237 238 239 239 239 239 238 238 238 239 239 239 239
343 338 333 330 327 323 319 315 311 307 302 296 290 283 279 276 273 269 264 261 260 260 258 256 254 253 252 251 249 248 247 246 246 245 243 242 242 242 243 243 243 244 244 244 244 244 244 243 243 243 243 243 243 243 243 242 242 241 241 240 240 240 240 240 240 240 239 238 237 236 236 235 235 236 237 239 239 239 239 238 238 238 239 239 239
349 346 342 339 335 330 325 321 316 312 308 303 298 292 285 281 277 275 271 265 262 261 261 260 257 254 252 252 251 250 248 247 246 245 244 243 243 243 243 244 244 244 244 244 244 244 244 244 244 244 245 245 245 245 244 244 244 243 242 242 241 241 241 240 240 239 239 238 238 237 236 235 235 235 236 237 238 239 239 239 238 238 238 238 239
355 352 349 346 343 339 334 329 324 318 313 308 304 299 293 287 282 278 275 273 269 266 264 262 259 256 254 252 251 250 248 246 245 244 243 243 243 243 243 243 243 243 243 242 243 243 243 244 244 245 245 245 245 245 245 245 244 244 244 243 243 242 241 241 240 240 239 238 237 237 236 235 235 235 235 235 237 238 238 238 238 238 238 238 238
359 357 354 351 348 345 341 337 332 326 320 314 309 304 300 294 289 284 279 276 274 272 268 266 263 259 254 251 249 247 245 243 243 242 242 242 242 242 242 242 242 242 242 241 242 242 242 242 243 243 244 244 244 245 245 245 244 244 244 244 244 243 243 242 241 240 240 239 238 237 236 235 235 235 235 235 235 236 237 238 238 238 238 238 238
2 360 358 355 353 350 346 342 338 333 328 322 317 312 307 302 297 292 286 282 279 276 273 269 266 262 257 253 249 247 244 243 242 241 241 241 241 241 241 242 242 242 242 241 241 241 241 241 241 241 242 242 243 243 244 244 244 244 245 245 244 244 243 243 242 241 240 239 238 237 236 235 234 234 234 234 234 235 236 237 238 238 238 238 238
4 3 1 359 357 354 351 347 344 340 336 331 326 321 315 311 306 301 296 291 286 282 278 274 270 265 260 255 252 249 247 246 244 243 242 241 240 239 238 239 240 241 242 241 241 241 241 241 241 241 241 241 241 242 242 242 243 243 244 244 244 244 244 243 242 241 240 240 239 238 237 235 234 234 233 233 233 234 234 235 237 238 238 238 238
5 5 3 1 360 358 356 353 349 346 342 339 334 330 325 320 315 309 304 299 294 289 285 281 277 272 266 261 256 253 251 249 247 245 244 243 241 240 239 239 240 241 242 242 242 242 242 242 242 242 242 242 242 241 241 241 241 241 241 242 243 243 244 243 243 242 241 240 239 238 237 236 234 234 233 233 232 233 233 234 235 237 238 238 238
6 6 5 4 2 0 358 357 354 351 347 344 341 337 333 328 323 317 311 305 300 295 290 287 283 279 275 271 267 262 258 255 252 249 247 246 245 244 243 243 243 243 244 244 243 243 242 243 242 242 242 242 242 242 242 241 240 240 240 240 240 241 242 242 242 242 241 240 239 239 238 237 235 234 233 233 233 232 233 233 234 236 237 238 238
7 6 5 5 4 2 360 358 356 354 351 348 344 341 338 334 329 324 318 312 306 300 294 289 286 282 278 275 272 269 266 263 260 257 254 251 249 248 247 247 247 246 246 246 245 243 242 243 243 242 242 242 242 242 242 242 241 241 240 240 239 239 240 240 241 241 241 241 240 239 238 237 236 235 234 233 233 233 233 233 233 235 236 238 239
9 7 6 5 4 3 1 359 357 356 354 351 348 344 340 337 333 328 323 318 312 306 300 295 290 286 282 277 273 270 268 266 264 261 259 256 254 251 250 249 249 248 247 247 246 244 243 243 243 243 243 242 242 242 242 242 241 241 240 239 239 238 238 239 239 239 240 240 240 239 238 237 236 236 235 234 233 233 233 233 233 234 235 237 238
9 8 7 6 5 4 2 0 359 357 355 353 351 349 344 339 335 330 326 321 317 311 306 301 296 291 287 283 278 274 270 268 266 264 261 259 257 254 252 251 250 249 248 247 245 245 244 244 244 244 243 243 243 242 242 241 241 240 240 239 238 238 237 237 238 238 238 239 239 239 239 238 236 236 235 235 235 234 233 233 233 233 234 235 236
9 9 9 7 6 5 3 2 360 358 356 353 351 349 347 343 338 332 328 324 319 315 311 306 301 297 292 287 283 278 275 272 270 268 267 265 263 260 257 255 253 252 251 249 247 246 245 244 244 244 244 244 244 243 242 241 241 240 240 239 238 237 237 237 237 237 238 238 238 238 239 238 237 236 235 234 234 234 234 234 234 234 234 234 235
8 8 9 9 7 6 4 3 1 359 356 354 351 349 347 344 341 336 331 326 321 317 314 310 305 301 296 291 287 283 279 276 273 272 270 269 268 266 264 261 259 256 255 253 252 250 248 247 246 245 244 244 243 243 242 242 241 240 240 239 239 238 237 237 238 237 237 237 237 237 238 238 237 236 235 234 233 233 233 233 233 234 234 234 235
6 7 7 8 8 7 5 3 2 360 357 354 352 350 347 345 344 341 337 331 324 318 314 311 309 305 300 296 291 287 283 280 277 275 272 271 269 268 267 265 263 260 257 255 253 252 251 250 249 247 246 245 244 243 242 242 242 241 240 239 239 238 237 237 238 237 237 237 237 237 237 237 237 236 236 235 234 233 233 233 232 233 233 234 234
5 5 5 6 7 7 7 5 3 1 359 356 353 350 348 346 345 343 340 336 330 323 317 312 310 307 303 300 296 291 287 283 280 278 275 273 270 268 266 264 263 261 258 256 254 253 252 251 250 249 247 246 245 244 243 243 243 242 241 240 239 238 237 237 237 237 237 237 238 238 237 237 237 236 236 235 234 234 233 233 233 233 233 233 234
5 4 4 4 5 5 6 6 4 2 360 357 355 352 350 349 347 344 342 340 337 333 327 320 314 309 305 302 298 295 291 287 283 280 278 276 273 271 268 265 263 260 258 255 254 252 251 251 250 249 248 247 246 245 245 244 244 243 242 242 241 239 238 238 237 237 237 237 237 237 237 237 237 237 236 236 235 234 234 234 234 234 234 234 235
6 5 4 3 3 3 4 4 4 3 1 359 357 354 352 350 349 347 344 341 339 336 333 329 323 317 310 304 300 297 294 291 287 283 281 278 276 274 271 268 265 262 259 257 255 253 251 250 249 249 248 247 247 246 245 245 244 244 243 243 242 241 240 239 238 238 237 237 236 236 236 237 237 237 237 236 235 235 235 234 234 234 235 235 236
5 5 4 3 2 2 2 2 3 3 1 360 358 356 354 352 349 347 345 342 340 337 335 333 328 324 318 312 307 302 297 293 290 286 283 281 279 276 274 271 269 265 262 260 257 256 254 252 251 249 248 247 246 246 245 245 245 245 244 243 243 242 241 241 240 239 239 238 237 237 236 236 237 237 237 237 236 235 235 235 234 234 235 235 235
6 5 4 3 3 2 1 1 1 1 1 0 358 356 354 353 350 347 345 343 342 340 338 335 331 328 324 320 314 309 303 298 293 288 284 282 280 278 277 275 272 270 266 262 259 257 256 254 253 252 250 249 247 246 246 245 245 245 245 244 243 242 242 241 241 240 240 240 239 239 238 238 237 237 237 237 237 236 235 235 235 235 235 235 236
6 5 4 3 3 2 1 0 360 359 360 0 0 357 354 352 350 349 346 344 343 341 338 334 331 329 327 324 319 315 310 304 299 293 288 284 280 279 277 276 274 273 271 268 264 259 256 254 253 252 251 250 249 248 247 246 246 246 245 244 243 242 242 242 241 241 242 242 242 241 240 238 238 237 236 236 236 236 236 235 235 235 235 235 236
5 4 3 3 2 2 1 1 360 359 357 357 358 360 358 354 350 348 347 345 343 340 336 333 330 329 328 326 323 319 315 311 307 302 297 291 285 281 278 276 274 272 271 270 268 265 261 258 254 252 250 249 248 248 247 247 246 246 246 245 244 243 242 242 241 241 241 241 241 240 240 239 239 239 238 237 237 237 237 236 236 236 236 236 236
3 4 3 2 1 1 0 0 360 360 358 356 354 355 357 359 356 351 347 346 344 341 338 336 334 332 330 328 325 321 318 315 312 309 306 302 297 291 286 280 276 272 270 268 267 266 265 262 259 255 252 249 248 246 246 246 246 245 245 245 244 244 244 242 241 240 240 240 240 240 240 240 240 240 239 238 238 237 237 238 237 237 237 237 237
2 3 3 2 0 359 359 359 359 359 359 358 355 352 351 354 357 356 352 348 346 344 342 339 337 335 333 330 327 323 320 317 314 312 309 307 304 300 295 289 283 277 271 267 264 264 263 263 261 259 256 253 250 248 246 245 244 244 244 244 244 244 244 244 243 242 240 240 240 240 240 240 240 239 239 239 238 237 237 238 238 238 238 237 237
2 2 3 3 1 359 358 358 358 359 358 358 357 355 352 349 350 353 354 352 348 345 343 341 340 338 335 333 330 326 322 318 316 314 311 308 305 302 298 295 289 283 276 270 264 262 260 260 259 258 256 254 253 251 249 246 244 244 244 244 243 243 243 244 244 243 242 240 240 240 239 240 240 240 240 239 239 238 237 237 238 239 239 239 238
1 1 1 2 2 0 358 357 356 357 358 357 356 356 355 351 349 348 349 350 350 347 345 342 340 338 336 334 332 329 325 321 318 315 312 309 306 302 298 295 291 287 282 276 270 265 261 259 257 256 255 253 251 251 251 250 247 245 244 244 243 243 243 243 244 244 243 241 240 239 239 239 240 240 240 240 240 239 238 237 237 238 239 239 239
1 1 0 1 1 1 359 357 355 355 356 357 356 355 354 353 351 348 347 347 347 347 346 344 341 339 336 335 333 331 327 324 321 317 314 311 308 304 299 295 291 288 285 280 276 271 266 262 259 256 254 252 250 249 248 249 250 249 247 246 244 243 243 243 243 244 243 242 240 239 238 238 239 239 240 240 240 239 239 238 237 237 238 239 240
1 0 0 360 0 0 359 358 356 354 353 354 355 355 353 352 351 350 348 346 345 345 344 343 341 339 335 334 333 332 328 325 323 321 318 314 310 306 302 297 292 287 284 281 277 274 270 267 263 259 256 253 251 249 247 247 247 248 248 248 247 246 244 244 243 243 243 242 241 240 239 239 239 239 239 240 240 239 239 239 238 238 238 239 239
0 0 360 359 359 360 359 358 356 355 353 352 353 353 353 351 350 349 348 347 345 344 343 342 340 338 335 333 333 331 329 327 325 323 321 317 312 308 304 300 296 290 285 281 277 274 271 269 266 263 260 256 253 250 248 246 245 245 245 246 246 246 246 245 244 243 242 241 241 240 240 240 239 239 239 239 239 239 239 239 238 238 239 239 239
0 360 359 359 359 359 359 358 356 355 353 352 351 352 352 351 350 348 347 346 345 343 342 342 341 339 337 334 332 330 329 328 326 324 322 318 314 310 306 302 299 295 290 285 280 276 273 270 268 265 263 260 257 253 250 247 245 244 244 244 244 244 244 244 244 244 242 241 240 239 239 239 239 239 239 240 240 239 239 239 239 239 239 239 240
0 359 359 359 358 358 359 358 357 355 354 352 351 350 351 351 350 348 347 346 345 344 342 341 341 340 339 336 332 330 328 328 327 325 322 319 316 312 308 305 301 297 293 289 285 281 277 274 272 269 266 263 260 257 254 251 248 246 244 243 243 243 243 243 243 243 243 242 240 239 238 237 237 237 238 239 239 239 239 239 239 239 239 239 239
1 359 358 358 358 358 358 358 358 356 354 353 351 350 349 349 349 348 346 345 345 344 342 340 338 338 338 336 334 330 328 327 326 325 322 320 317 314 311 308 304 300 297 293 289 286 282 279 276 274 271 267 263 259 257 255 254 251 248 245 244 243 243 243 244 244 244 243 242 241 239 238 236 236 236 237 238 239 239 239 239 239 239 239 238
1 0 359 358 358 358 358 358 358 357 355 353 352 351 350 349 348 348 347 345 344 343 343 340 337 336 336 335 333 331 329 327 325 323 321 319 318 315 313 310 306 302 298 295 292 289 286 282 279 276 273 270 267 262 259 256 254 254 252 249 247 245 244 244 244 245 245 245 244 243 242 240 239 237 236 236 236 237 238 239 239 240 240 240 239
0 0 359 358 358 358 357 357 358 358 356 354 352 351 350 349 348 348 347 346 344 343 342 340 337 334 333 332 331 330 328 327 324 322 321 319 317 315 313 310 307 304 300 297 294 290 287 285 281 279 276 273 269 265 262 258 255 253 252 251 250 249 247 246 246 246 246 246 246 245 244 243 241 240 238 237 237 237 238 238 239 240 240 240 239
359 360 360 359 358 358 358 357 357 357 357 355 353 351 351 350 348 347 347 346 345 343 341 339 337 333 331 329 329 327 327 326 323 320 318 317 316 314 311 309 307 304 301 298 294 291 288 285 282 280 278 275 272 269 265 261 258 255 251 249 248 248 247 246 246 246 246 246 247 246 246 245 243 242 240 239 238 238 238 239 239 240 240 241 240
358 359 359 359 358 358 358 357 357 357 357 356 354 352 351 350 349 348 347 346 346 344 342 339 336 333 329 327 326 324 324 323 321 319 316 314 313 312 310 308 306 304 301 298 295 292 289 285 282 279 277 275 274 271 269 265 262 259 255 251 247 246 245 245 244 243 243 244 244 245 245 245 245 244 243 241 240 239 238 238 239 239 240 240 241
357 357 358 359 359 358 358 358 357 356 356 356 355 353 351 350 349 348 347 346 345 344 342 340 337 333 330 326 324 322 321 320 319 317 314 312 310 309 308 307 305 303 301 298 295 293 290 287 285 281 278 275 272 271 269 268 266 263 260 256 252 248 246 245 244 242 242 241 241 242 243 243 243 243 243 242 241 240 239 238 238 238 239 240 240
356 356 357 358 358 359 359 358 358 356 355 355 355 354 352 350 349 348 347 346 345 344 343 340 337 334 330 326 323 320 318 317 316 314 313 310 308 306 305 305 304 303 302 299 296 293 291 289 287 284 281 278 274 270 268 266 264 263 262 260 257 254 250 247 245 244 242 241 240 240 240 240 241 241 241 241 241 241 240 239 238 238 238 238 239
355 355 356 357 357 358 358 358 358 357 356 355 354 354 353 351 349 348 347 346 345 344 343 341 338 335 331 327 323 319 317 315 313 312 311 309 307 305 303 302 301 301 300 299 298 295 292 289 287 285 283 280 277 273 269 266 263 261 260 259 258 257 254 251 248 246 245 244 242 241 240 239 239 239 239 239 240 240 239 239 239 238 238 238 238
354 354 355 356 356 357 358 358 357 357 356 355 354 353 352 351 350 349 347 346 345 344 343 341 339 336 332 329 324 320 316 314 312 310 308 307 305 303 301 299 298 298 297 297 297 296 294 291 288 285 283 280 278 275 272 269 266 263 260 257 256 256 255 253 250 248 246 246 245 244 242 241 239 238 238 238 238 238 238 238 238 238 238 238 238
353 354 354 355 355 356 357 357 357 357 356 355 354 353 352 351 350 349 348 346 345 344 343 341 339 336 333 330 326 322 317 313 310 308 306 305 303 301 299 297 295 294 293 292 293 293 292 291 288 285 283 281 278 275 272 270 267 265 262 259 257 255 254 253 252 250 248 246 245 244 244 242 241 239 238 237 237 237 236 237 237 237 237 237 237
353 353 353 353 354 355 356 356 357 356 356 355 354 353 352 351 350 349 348 347 345 344 343 341 339 337 334 330 327 323 319 315 310 307 305 303 301 300 298 296 294 291 290 288 288 288 288 288 288 286 283 281 278 276 273 270 268 265 264 262 260 257 256 255 254 253 252 250 248 246 245 245 244 243 242 240 238 237 236 236 236 236 236 236 237
352 352 352 352 353 353 354 355 356 356 356 355 354 353 352 350 349 348 348 347 346 344 343 341 339 337 334 331 327 324 320 316 312 308 304 302 299 298 296 295 293 291 288 286 284 283 283 283 284 284 283 281 278 276 274 272 269 266 263 261 260 259 257 256 256 255 254 253 251 250 248 247 246 245 244 243 242 241 239 239 238 238 237 237 237
350 351 351 351 351 352 353 354 355 356 355 355 354 353 352 350 349 347 347 346 345 345 343 341 339 337 334 331 328 324 321 317 314 310 306 302 298 296 294 293 291 289 287 286 284 282 281 279 279 280 280 280 278 276 274 272 270 267 264 260 258 257 256 255 254 254 254 253 252 251 250 249 248 247 246 244 242 241 240 240 240 240 239 239 239
349 349 349 350 350 351 351 353 354 355 355 354 354 353 351 350 348 347 346 345 344 344 343 341 339 337 334 332 328 325 321 317 314 311 308 304 300 296 293 290 288 287 285 284 282 281 279 278 277 276 275 276 276 275 274 272 270 268 265 262 259 256 254 253 252 251 250 249 248 248 248 247 247 247 246 245 244 243 241 240 240 239 239 239 239